Погода в Энсенаде

Мексика     31°51′51″N   116°36′14″W
В апреле 2022 года жителям России запретили посещать сайт meteo.paraplan.net по решению Генеральной прокуратуры. Аудитория сайта уменьшилась в 10 раз. Владельцы сайта не видят смысла в поддержке погодного сервера в таких условиях. Сайт будет закрыт в октябре.
темп.,
°C
ветер,
м/с
пор.,
м/с
влажн.,
%
обл.,
%
осадки,
мм/ч
давл.,
гПа
погр.,
м
30 сентября, пт
пт3023:00+20с11765 0.0 101337
02:00+20сз11725 0.0 101217
05:00+18сз117710 0.0 101219
08:00+21сз11653 0.0 101288
11:00+26з32470 0.0 1012446
14:00+26з43471 0.0 1010490
17:00+22зсз32590 0.0 1010312
20:00+18сз11835 0.0 101065
1 октября, сб
сб123:00+17сз11835 0.0 101024
02:00+17сз11823 0.0 101016
05:00+16зсз119015 0.0 101019
08:00+18зсз117824 0.0 1011141
11:00+24з31511 0.0 1010518
14:00+25з42500 0.0 1009588
17:00+21зсз32620 0.0 1009355
20:00+17сз11867 0.0 1011112
2 октября, вс
вс223:00+17сз11854 0.0 101161
02:00+16зсз11929 0.0 101027
05:00+16зсз11949 0.0 101017
08:00+18сз118317 0.0 1012155
11:00+24з32581 0.0 1012493
14:00+23з43639 0.0 1011488
17:00+22зсз326622 0.0 1011369
20:00+18сз118716 0.0 1013128
3 октября, пн
пн323:00+18ссз11898 0.0 101347
02:00+17зсз119313 0.0 101224
05:00+17ссз119519 0.0 101343
08:00+19сз118319 0.0 1014128
11:00+25з32570 0.0 1014461
14:00+26з42542 0.0 1013506
17:00+22зсз22703 0.0 1014301
20:00+19ссз118516 0.0 101477
4 октября, вт
вт423:00+19зсз118513 0.0 101537
02:00+18ссз118815 0.0 101429
05:00+18ссз11873 0.0 101315
08:00+21сз11740 0.0 101490
11:00+26з32520 0.0 1014498
14:00+27з43511 0.0 1012520
17:00+24зсз32602 0.0 1012301
20:00+20с11770 0.0 101333